KJ6MC Weather Reports


Display with metric or nautical units.
time (UTC)temp
F
wind
direction
speed
MPH
gust
MPH
rain 1hr
in
rain 24hr
in
rain mn
in
humidity
%
barometer
mb
20170430011749 80 60 3.0 5.0 0.00 0.00 0.00 16 1016.3
20170430010748 80 24 2.0 5.0 0.00 0.00 0.00 17 1016.3
20170430005748 80 336 3.0 8.0 0.00 0.00 0.00 16 1016.4
20170430003748 82 4 4.0 5.0 0.00 0.00 0.00 17 1016.5
20170430002748 82 10 1.0 9.0 0.00 0.00 0.00 17 1016.5
20170429232747 82 3 3.0 8.0 0.00 0.00 0.00 18 1017.0
20170429230747 82 342 1.0 8.0 0.00 0.00 0.00 16 1017.1
20170429225747 82 346 1.0 5.0 0.00 0.00 0.00 18 1017.2
20170429223746 81 326 2.0 7.0 0.00 0.00 0.00 17 1017.3
20170429220746 82 342 0.0 3.0 0.00 0.00 0.00 17 1017.6
20170429215746 82 340 0.0 8.0 0.00 0.00 0.00 16 1017.6
20170429214746 81 5 2.0 8.0 0.00 0.00 0.00 17 1017.8
20170429213746 80 7 3.0 7.0 0.00 0.00 0.00 17 1017.9
20170429211745 80 320 1.0 6.0 0.00 0.00 0.00 19 1017.9
20170429210745 79 212 3.0 5.0 0.00 0.00 0.00 16 1018.0
20170429205745 80 107 1.0 5.0 0.00 0.00 0.00 17 1018.0
20170429204745 80 24 0.0 4.0 0.00 0.00 0.00 17 1018.1
20170429203745 79 355 1.0 4.0 0.00 0.00 0.00 19 1018.2
20170429202744 79 24 0.0 6.0 0.00 0.00 0.00 19 1018.5
20170429200744 78 20 3.0 6.0 0.00 0.00 0.00 21 1018.7
20170429195744 77 6 1.0 8.0 0.00 0.00 0.00 19 1018.8
20170429193744 76 345 3.0 8.0 0.00 0.00 0.00 22 1019.1
20170429191744 75 14 0.0 6.0 0.00 0.00 0.00 22 1019.2
20170429185933 74 37 3.0 9.0 0.00 0.00 0.00 21 1019.4
20170429184932 74 31 4.0 8.0 0.00 0.00 0.00 22 1019.4
20170429183932 73 3 1.0 8.0 0.00 0.00 0.00 23 1019.5
20170429182932 73 20 3.0 8.0 0.00 0.00 0.00 23 1019.6
20170429181932 73 346 6.0 8.0 0.00 0.00 0.00 27 1019.5
20170429175932 71 343 3.0 10.0 0.00 0.00 0.00 30 1019.5
20170429174931 70 342 4.0 10.0 0.00 0.00 0.00 30 1019.6
20170429173931 69 328 4.0 10.0 0.00 0.00 0.00 31 1019.5
20170429171931 68 123 3.0 11.0 0.00 0.00 0.00 32 1019.3
20170429164931 66 42 3.0 8.0 0.00 0.00 0.00 38 1019.2
20170429163931 64 3 5.0 8.0 0.00 0.00 0.00 37 1019.1
20170429162931 64 314 3.0 9.0 0.00 0.00 0.00 38 1019.0
20170429161930 63 20 3.0 9.0 0.00 0.00 0.00 39 1019.1
20170429152930 59 343 3.0 9.0 0.00 0.00 0.00 44 1018.8
20170429145929 56 17 2.0 10.0 0.00 0.00 0.00 48 1018.6
20170429144929 55 18 2.0 10.0 0.00 0.00 0.00 50 1018.5
20170429142929 54 342 3.0 8.0 0.00 0.00 0.00 54 1018.5
20170429141929 53 10 2.0 8.0 0.00 0.00 0.00 55 1018.3
20170429140928 52 349 3.0 8.0 0.00 0.00 0.00 56 1018.2
20170429134928 51 0 2.0 5.0 0.00 0.00 0.00 57 1018.0
20170429133928 51 31 2.0 4.0 0.00 0.00 0.00 57 1017.9
20170429132928 51 349 3.0 4.0 0.00 0.00 0.00 56 1018.0
20170429131928 51 350 0.0 4.0 0.00 0.00 0.00 54 1017.8
20170429125927 51 0 1.0 4.0 0.00 0.00 0.00 53 1017.6
20170429124927 51 16 2.0 4.0 0.00 0.00 0.00 52 1017.4
20170429123927 51 355 0.0 3.0 0.00 0.00 0.00 54 1017.3
20170429122927 52 343 0.0 6.0 0.00 0.00 0.00 53 1017.3
20170429114926 52 24 0.0 5.0 0.00 0.00 0.00 53 1017.3
20170429113926 53 341 0.0 5.0 0.00 0.00 0.00 51 1017.3
20170429110926 56 359 1.0 6.0 0.00 0.00 0.00 43 1017.1
20170429104925 56 7 2.0 7.0 0.00 0.00 0.00 41 1016.9
20170429103925 56 345 1.0 5.0 0.00 0.00 0.00 42 1016.8
20170429101925 56 4 1.0 5.0 0.00 0.00 0.00 42 1016.4
20170429100925 56 18 1.0 3.0 0.00 0.00 0.00 42 1016.4
20170429095925 56 10 3.0 5.0 0.00 0.00 0.00 43 1016.4
20170429094925 56 349 2.0 5.0 0.00 0.00 0.00 43 1016.3
20170429093925 56 21 2.0 3.0 0.00 0.00 0.00 43 1016.3
20170429091924 56 14 2.0 4.0 0.00 0.00 0.00 42 1016.2
20170429090924 57 7 2.0 3.0 0.00 0.00 0.00 41 1016.3
20170429084924 57 0 1.0 3.0 0.00 0.00 0.00 40 1016.3
20170429083924 58 357 1.0 3.0 0.00 0.00 0.00 39 1016.2
20170429075923 59 342 1.0 4.0 0.00 0.00 0.00 37 1016.2
20170429074923 60 19 2.0 4.0 0.00 0.00 0.00 36 1016.1
20170429072923 60 6 3.0 7.0 0.00 0.00 0.00 36 1015.8
20170429070923 60 6 0.0 4.0 0.00 0.00 0.00 38 1015.8
20170429065922 60 18 1.0 6.0 0.00 0.00 0.00 38 1015.8
20170429063922 61 16 1.0 5.0 0.00 0.00 0.00 36 1015.5
20170429062922 62 0 2.0 6.0 0.00 0.00 0.00 35 1015.5
20170429061922 62 16 1.0 6.0 0.00 0.00 0.00 34 1015.5
20170429060922 63 340 1.0 4.0 0.00 0.00 0.00 33 1015.4
20170429051921 64 44 4.0 10.0 0.00 0.00 0.00 32 1015.4
20170429050921 65 56 7.0 7.0 0.00 0.00 0.00 32 1015.5
20170429044921 66 17 3.0 10.0 0.00 0.00 0.00 31 1015.6
20170429043920 66 332 8.0 10.0 0.00 0.00 0.00 31 1015.4
20170429040920 67 9 4.0 8.0 0.00 0.00 0.00 30 1015.2
20170429035920 67 32 6.0 12.0 0.00 0.00 0.00 30 1015.2
20170429033920 68 18 3.0 10.0 0.00 0.00 0.00 29 1015.0
20170429032919 68 25 4.0 15.0 0.00 0.00 0.00 29 1014.9
20170429030919 69 6 3.0 15.0 0.00 0.00 0.00 27 1014.7
20170429023919 70 25 3.0 13.0 0.00 0.00 0.00 27 1014.4
20170429022919 70 347 5.0 14.0 0.00 0.00 0.00 26 1014.2
20170429021918 70 14 3.0 14.0 0.00 0.00 0.00 25 1014.2
20170429015918 71 349 5.0 14.0 0.00 0.00 0.00 25 1014.0
20170429012918 72 352 10.0 19.0 0.00 0.00 0.00 25 1013.9